DECAYED

STARLINK-3519, 51890 (Decayed)

Orbit data source: Space-Track

STARLINK-3519, 51890 was a payload satellite owned by SpaceX/Seattle (US) in LEO that was launched on Thu, 03 Mar 2022 UTC via an FALCON 9 launch vehicle from the Air Force Eastern Test Range (AFETR). Payload-class satellites include a variety of spacecraft equipped with specific instruments for various scientific and technological missions. These include communications satellites like Starlink; space stations such as the ISS; scientific satellites like the Hubble; Earth observation satellites from companies like Planet Labs, Umbra, and HawkEye 360; GPS; miniature CubeSats for education and research; and military/defense satellites.

Not visible in the next 10 days
Identifier
51890, 2022-022AQ
Orbit
Decayed
Country
Flag of USUS
Related business
Manufacturer
SpaceX/Seattle
Mission
Decayed Commercial Communications
Bus & Motor
STARLINK, Unknown motor
Mass
297 kg wet, ~275 kg dry
Launch date (UTC)
2022-03-03 (4 years ago)
Launch vehicle
FALCON 9
Launch site
Air Force Eastern Test Range (AFETR)
Object type
Payload
Rocket body
Debris
Shape & HBR
Box + 1 Pan, 10.1 m
Radar Cross Section
13.562 m², Large (>1 m²)

Expand to show TLE details & history
Last TLE update: 1 year ago

TLE from 1 year ago
0 STARLINK-3519
1 51890U 22022AQ  25132.77853100  .14301491  12394-4  11447-2 0  9990
2 51890  53.1548 201.4572 0006179 308.5981 155.5117 16.39176262178777
Epoch: 2025-05-12T18:41Z
TLE epoch observation values (Epoch: 2025-05-12T18:41:05.078Z)
Latitude
51.05354°
Longitude
163.21116°
Altitude
177.688 km
Speed
7.804 km/s
True Right ascension
20h 57m 04s
True Declination
50° 52' 13"
Sunlit
Object was in daylight at epoch
Visualization orbit readout
Latitude
Unknown
Longitude
Unknown
Altitude
Unknown
Speed
Unknown
Apparent Right ascension
Unknown
Apparent Declination
Unknown
Sunlit
N/A
Visualization observer readout
Local Sidereal Time
21:33:52
Azimuth
Unknown
Elevation
Unknown
Doppler factor
Unknown
Orbital elements
Apogee altitude
172.309 km
Perigee altitude
164.219 km
Semi-major axis
6,546.401 km
Eccentricity
0.00062
Inclination
53.1548°
RAAN
201.4572°
Arg. of periapsis
308.5981°
True anomaly
155.54103°
Mean anomaly
155.5117°
Eccentric anomaly
155.52637°
Mean motion
4.09769 °/min
Orbital period
87.85 mins
BSTAR
0.0011447
Loading maneuver chart data...
Computing Atmospheric mass density...
Loading historical data...
Loading historical data...
Loading historical data...
Loading historical data...
Loading historical data...
Loading historical data...
Loading historical data...

Documentation

Showing up to 5 results
|